Weather History for Fort Wayne, IN

Change the Weather History Date:

Monday, November 4, 2013

  Actual Average Record
Temperature  
Mean Temperature 44 °F 46 °F  
Max Temperature 52 °F 56 °F 76 °F (2003)
Min Temperature 35 °F 37 °F 15 °F (1951)
Degree Days  
Heating Degree Days 21 19  
Month to date heating degree days 76 73  
Since 1 July heating degree days 580 582  
Cooling Degree Days 0 0  
Month to date cooling degree days 0 0  
Year to date cooling degree days 855 809  
Moisture  
Dew Point 36 °F    
Average Humidity 73    
Maximum Humidity 92    
Minimum Humidity 54    
Precipitation  
Precipitation 0.00 in 0.10 in 1.15 in (1935)
Month to date precipitation 0.08 0.38  
Year to date precipitation 37.97 32.86  
Snow  
Snow 0.00 in 0.00 in 1.90 in (1950)
Month to date snowfall 0.0 0.1  
Since 1 July snowfall T 0.4  
Since 1 September snowfall T 0.4  
Snow Depth 0.00 in    
Sea Level Pressure  
Sea Level Pressure 30.32 in    
Wind  
Wind Speed 10 mph (SE)    
Max Wind Speed 18 mph    
Max Gust Speed 23 mph    
Visibility 10 miles    
Events      
T = Trace of Precipitation, MM = Missing Value Source: NWS Daily Summary

Daily Weather History Graph

Daily Weather History Graph

Search for Another Location

Airport:

Trip Planner

Search our weather history database for the weather conditions in past years. The results will help you decide how hot, cold, wet, or windy it might be!

Date:

Astronomy

Nov. 04, 2013 Rise Set
Actual Time 7:15 AM EST 5:32 PM EST
Civil Twilight 6:46 AM EST 6:01 PM EST
Nautical Twilight 6:13 AM EST 6:34 PM EST
Astronomical Twilight 5:41 AM EST 7:06 PM EST
Moon 8:25 AM EST (11/4) 6:36 PM EST (11/4)
Length of Visible Light 11h 14m
Length of Day
10h 17m
New Moon, 2% of the Moon is Illuminated
Nov 4
New Moon
Nov 10
First Quarter
Nov 17
Full
Nov 25
Last Quarter
Dec 2
New

Hourly Weather History & Observations

Time (EST) Temp. Windchill Dew Point Humidity Pressure Visibility Wind Dir Wind Speed Gust Speed Precip Events Conditions
12:54 AM 37.0 °F 31.0 °F 34.0 °F 89% 30.36 in 10.0 mi East 8.1 mph - N/A   Scattered Clouds
1:54 AM 36.0 °F 29.6 °F 33.1 °F 89% 30.36 in 10.0 mi East 8.1 mph - N/A   Clear
2:54 AM 36.0 °F 29.6 °F 32.0 °F 86% 30.37 in 10.0 mi East 8.1 mph - N/A   Clear
3:54 AM 37.0 °F 31.6 °F 33.1 °F 86% 30.38 in 10.0 mi ESE 6.9 mph - N/A   Clear
4:54 AM 37.9 °F 31.5 °F 33.1 °F 83% 30.37 in 10.0 mi ESE 9.2 mph - N/A   Clear
5:54 AM 39.0 °F 32.3 °F 33.1 °F 79% 30.37 in 10.0 mi SE 10.4 mph - N/A   Clear
6:54 AM 39.0 °F 31.8 °F 33.1 °F 79% 30.37 in 10.0 mi SE 11.5 mph - N/A   Mostly Cloudy
7:54 AM 39.9 °F 33.4 °F 32.0 °F 73% 30.37 in 10.0 mi SE 10.4 mph - N/A   Mostly Cloudy
8:54 AM 41.0 °F 34.3 °F 33.1 °F 73% 30.39 in 10.0 mi SE 11.5 mph - N/A   Mostly Cloudy
9:54 AM 43.0 °F 36.0 °F 34.0 °F 71% 30.37 in 10.0 mi SE 13.8 mph - N/A   Mostly Cloudy
10:54 AM 45.0 °F 38.5 °F 34.0 °F 65% 30.35 in 10.0 mi SE 13.8 mph - N/A   Mostly Cloudy
11:54 AM 48.9 °F - 33.1 °F 54% 30.34 in 10.0 mi SE 18.4 mph 23.0 mph N/A   Mostly Cloudy
12:54 PM 48.9 °F - 33.1 °F 54% 30.30 in 10.0 mi SE 16.1 mph 21.9 mph N/A   Mostly Cloudy
1:54 PM 50.0 °F - 35.1 °F 57% 30.28 in 10.0 mi SE 12.7 mph - N/A   Mostly Cloudy
2:54 PM 52.0 °F - 36.0 °F 54% 30.28 in 10.0 mi SE 9.2 mph - N/A   Mostly Cloudy
3:54 PM 52.0 °F - 37.9 °F 59% 30.27 in 10.0 mi SE 8.1 mph - N/A   Overcast
4:54 PM 51.1 °F - 39.0 °F 63% 30.27 in 10.0 mi SE 6.9 mph - N/A   Overcast
5:54 PM 48.9 °F - 39.0 °F 69% 30.27 in 10.0 mi SSE 5.8 mph - N/A   Mostly Cloudy
6:54 PM 48.9 °F - 39.0 °F 69% 30.27 in 10.0 mi SSE 9.2 mph - N/A   Mostly Cloudy
7:54 PM 48.0 °F - 39.0 °F 71% 30.28 in 10.0 mi SSE 8.1 mph - N/A   Mostly Cloudy
8:54 PM 48.0 °F - 39.9 °F 74% 30.28 in 10.0 mi SSE 9.2 mph - N/A   Mostly Cloudy
9:54 PM 46.0 °F 41.4 °F 39.0 °F 76% 30.29 in 10.0 mi South 9.2 mph - N/A   Scattered Clouds
10:54 PM 46.9 °F - 39.9 °F 77% 30.29 in 10.0 mi South 10.4 mph - N/A   Partly Cloudy
11:54 PM 46.0 °F 42.5 °F 39.9 °F 79% 30.29 in 10.0 mi South 6.9 mph - N/A   Scattered Clouds